#timestamp,LO_Frequency,Hit,StdDev 
1626382815.6,286047002.5,P
1626382835.4,286047002.4,P
1626382855.3,286047002.2,P
1626382875.1,286047001.5,Y
1626382876.0,286047001.5,P
1626382895.8,286047001.0,P
1626382915.7,286047000.6,N
1626382935.5,286047000.5,N
1626382955.3,286047000.4,N
1626382975.2,286047001.2,N
1626382995.0,286047000.5,N
1626382995.9,286047000.5,N
1626383015.8,286047000.1,N
1626383035.6,286047002.2,Y
1626383055.4,286046999.7,P
1626383075.3,286047000.0,N
1626383095.1,286046999.9,N
1626383115.9,286047002.1,Y
1626383135.7,286046999.8,P
1626383155.5,286047002.0,P
1626383175.4,286047002.2,N
1626383195.2,286047002.6,N
1626383215.0,286047002.7,N
1626383215.9,286047002.7,N
1626383235.8,286047002.0,N
1626383255.6,286047002.2,N
1626383275.5,286047002.3,N
1626383295.3,286047000.1,N
1626383315.1,286047000.9,N
1626383335.9,286047000.4,N
1626383355.7,286046998.4,N
1626383375.5,286047000.4,N
1626383395.4,286047001.1,N
1626383415.2,286047000.4,N
1626383435.0,286047002.7,N
1626383435.9,286047002.7,N
1626383455.8,286047002.7,N
1626383475.6,286047002.3,N
1626383495.5,286047001.9,N
1626383515.3,286047002.1,N
1626383535.1,286047002.6,N
1626383555.9,286047002.5,N
1626383575.7,286047002.6,N
1626383595.5,286047002.5,N
1626383615.4,286046999.8,N
1626383635.2,286046999.8,N
1626383655.1,286047000.2,N
1626383656.0,286047000.2,N
1626383675.8,286047000.6,N
1626383695.6,286047000.1,N
1626383715.5,286047002.6,N
1626383735.3,286047002.5,N
1626383755.2,286047002.1,N
1626383775.9,286047001.6,N
1626383795.7,286047001.7,N
1626383815.6,286047001.5,N
1626383835.4,286046999.8,N
1626383855.2,286047002.8,N
1626383875.1,286047002.1,N
1626383876.0,286047002.1,N
1626383895.8,286047000.4,N
1626383915.7,286047000.2,N
1626383935.5,286047002.6,N
1626383955.3,286046999.7,N
1626383975.2,286046999.9,N
1626383995.0,286047000.2,N
1626383995.9,286047000.2,N
1626384015.8,286047001.0,N
1626384035.6,286047000.9,N
1626384055.4,286046998.1,N
1626384075.3,286047000.3,N
1626384095.1,286047000.9,N
1626384115.8,286046999.8,N
1626384135.7,286047000.2,N
1626384155.5,286046999.7,N
1626384175.4,286047002.2,N
1626384195.2,286046999.8,N
1626384215.0,286047002.8,N
1626384215.9,286047002.8,N
1626384235.8,286047002.4,N
1626384255.6,286047002.6,N
1626384275.5,286047002.2,N
1626384295.3,286047000.2,N
1626384315.1,286047000.9,N
1626384335.9,286046998.1,N
1626384355.7,286046998.2,N
1626384375.6,286046998.1,N
1626384395.4,286046998.8,N
1626384415.2,286046999.3,N
1626384435.1,286046998.8,N
1626384436.0,286046998.8,N
1626384455.8,286047001.2,N
1626384475.6,286047001.0,N
1626384495.5,286046999.9,N
1626384515.3,286047000.1,N
1626384535.2,286046999.8,N
1626384555.9,286046999.8,N
1626384575.7,286047002.1,N
1626384595.6,286046999.8,N
1626384615.4,286047000.7,N
1626384635.2,286046999.8,N
1626384655.1,286046999.8,N
1626384656.0,286046999.8,N
1626384675.8,286047000.1,N
1626384695.7,286046999.8,N
1626384715.5,286047000.3,N
1626384735.3,286047000.5,N
1626384755.2,286047000.4,N
1626384775.0,286046999.7,N
1626384775.9,286046999.7,N
1626384795.8,286047000.6,N
1626384815.6,286047000.5,N
1626384835.4,286046998.6,N
1626384855.3,286046998.4,N
1626384875.1,286046998.6,N
1626384876.0,286046998.6,N
1626384895.8,286046999.3,N
1626384915.7,286047000.3,N
1626384935.5,286047000.6,N
1626384955.3,286047000.8,N
1626384975.2,286047000.0,N
1626384995.0,286047000.5,N
1626384995.9,286047000.5,N
1626385015.8,286047002.8,Y
1626385035.6,286047000.0,P
1626385055.4,286046999.8,P
1626385075.3,286047000.9,P
1626385095.1,286047000.8,N
1626385115.9,286046998.4,Y
1626385135.7,286046998.8,P
1626385155.5,286046998.2,N
1626385175.4,286047000.6,N
1626385195.2,286047000.7,N
1626385215.1,286047002.8,N
1626385216.0,286047002.8,N
1626385235.8,286047000.3,N
1626385255.6,286046999.9,N
1626385275.5,286047000.6,N
1626385295.3,286046999.0,N
1626385315.1,286046999.1,N
1626385335.9,286046996.6,N
1626385355.7,286046997.2,N
1626385375.6,286046997.5,N
1626385395.4,286046996.7,N
1626385415.2,286046996.6,N
1626385435.1,286046999.5,N
1626385436.0,286046999.5,N
1626385455.8,286046999.3,N
1626385475.6,286046996.7,N
1626385495.5,286046997.8,N
1626385515.3,286046996.7,N
1626385535.2,286046999.0,N
1626385555.9,286046996.6,N
1626385575.7,286046998.9,N
1626385595.6,286046998.9,N
1626385615.4,286046998.7,N
1626385635.2,286046996.7,N
1626385655.1,286046998.8,N
1626385656.0,286046998.8,N
1626385675.8,286047000.8,N
1626385695.7,286046998.8,N
1626385715.5,286047000.8,N
1626385735.3,286047000.8,N
1626385755.2,286046998.5,N
1626385775.9,286046998.8,N
1626385795.7,286046998.8,N
1626385815.6,286046999.4,N
1626385835.4,286046998.6,N
1626385855.3,286046999.4,N
1626385875.1,286046997.1,N
1626385876.0,286046997.1,N
1626385895.8,286046997.8,N
1626385915.7,286046994.9,Y
1626385935.5,286046997.3,P
1626385955.3,286046994.9,P
1626385975.2,286046994.9,P
1626385995.0,286046997.9,N
1626385995.9,286046997.9,N
1626386015.8,286046995.0,Y
1626386035.6,286046998.1,P
1626386055.4,286046998.8,N
1626386075.3,286047000.0,N
1626386095.1,286047001.1,N
1626386115.8,286047000.7,N
1626386135.7,286047000.4,N
1626386155.5,286047000.9,N
1626386175.4,286047000.8,N
1626386195.2,286046998.6,N
1626386215.0,286047000.0,N
1626386215.9,286047000.0,N
1626386235.8,286047000.1,N
1626386255.6,286047002.6,N
1626386275.5,286047002.3,N
1626386295.3,286047002.2,N
1626386315.1,286047002.1,N
1626386335.9,286047001.5,N
1626386355.7,286047003.7,N
1626386375.5,286047004.0,N
1626386395.4,286047004.3,N
